Regional Weather Roundup
Issued by NWS

Home | Current Version | Previous Version | Graphics & Text | Print | Product List | Glossary On
Versions: 1 2 3 4 5 6 7 8 9 10 11 12 13 14 15 16 17 18 19 20 21 22 23 24 25 26 27 28 29 30 31 32 33 34 35 36 37 38 39 40 41 42 43 44 45 46 47 48 49 50
000
ASUS43 KDTX 280510
RWRMI
MICHIGAN HOURLY REGIONAL WEATHER ROUNDUP
NATIONAL WEATHER SERVICE DETROIT/PONTIAC MI
1200 AM EST FRI NOV 28 2014

NOTE: "FAIR" INDICATES FEW OR NO CLOUDS BELOW 12,000 FEET WITH NO
SIGNIFICANT WEATHER AND/OR OBSTRUCTION TO VISIBILITY.

MIZ047>049-052>055-059>063-066>070-074>076-081>083-280600-
SOUTHEAST LOWER MICHIGAN

CITY           SKY/WX    TMP DP  RH WIND       PRES   REMARKS
ADRIAN         CLEAR     20  13  74 NW5       30.33R
ALMA           CLOUDY    19   7  61 W7        30.33S
ANN ARBOR      MOCLDY    21   8  57 NW9       30.30S
BAD AXE        CLOUDY    20  12  72 NW13      30.28S
DETROIT CITY   PTCLDY    25   9  50 NW9       30.30R
DETROIT        PTCLDY    22  11  62 W10       30.31R
FLINT          PTCLDY    20   7  57 NW9       30.31S
GROSSE ILE     CLEAR     25  12  58 NW14G23   30.30R
HILLSDALE      MOCLDY    20  13  76 CALM      30.30S
HOWELL         CLOUDY    21  12  66 NW10      30.29S

CITY           SKY/WX    TMP DP  RH WIND       PRES   REMARKS
JACKSON        CLEAR     17   7  64 NW7       30.31R
LAMBERTVILLE   CLEAR     23  16  74 CALM      30.33S
LANSING        CLOUDY    20   7  57 NW8       30.33R
LAPEER         NOT AVBL
MASON          CLOUDY    22  10  60 NW7G16    30.31S
MONROE         CLEAR     23  14  68 NW9       30.31R
MT. CLEMENS    MOCLDY    24  11  57 NW10      30.27S
PONTIAC        FLURRIES  21   9  59 NW14      30.27S
PORT HOPE        N/A     20   7  57 W10G21    30.26S
PORT HURON     CLOUDY    23  10  58 NW13G18   30.28S
TRI CITIES     CLOUDY    21   8  57 W8        30.32S
YPSILANTI      PTCLDY    25  11  55 NW9       30.31S
$$
MIZ043>046-050>051-056>058-064>065-071>073-077>080-280600-
SOUTHWEST LOWER MICHIGAN

CITY           SKY/WX    TMP DP  RH WIND       PRES   REMARKS
BATTLE CREEK   CLOUDY    22  13  68 NW7       30.33S
BENTON HARBOR  CLOUDY    24  12  60 CALM      30.35F
BIG RAPIDS     FLURRIES  19  16  91 W3        30.29F
COLDWATER      CLOUDY    24  17  76 NW7       30.33S
HOLLAND        CLOUDY    21  13  71 E3        30.35F
GRAND RAPIDS   PTCLDY    18   9  68 NW3       30.34S
KALAMAZOO      CLOUDY    21  15  78 N6        30.34S
MARSHALL       CLOUDY    19  13  74 NW3       30.32S
MUSKEGON       CLOUDY    21  13  71 E3        30.34F
$$
MIZ016>042-280600-
NORTHERN LOWER MICHIGAN

CITY           SKY/WX    TMP DP  RH WIND       PRES   REMARKS
ALPENA         MOCLDY    15   8  73 W9G18     30.26S
BEAVER ISLAND  CLOUDY    19  12  74 W6        30.29R
BELLAIRE       CLOUDY    17  14  88 CALM      30.30S
CADILLAC       FLURRIES  13  10  87 W3        30.25S
CHARLEVOIX     CLOUDY    19  10  67 N9        30.30F
FRANKFORT      CLOUDY    19  13  74 NW3       30.32S
GAYLORD        CLOUDY    14   9  80 CALM      30.21F
GRAYLING       FLURRIES  16  11  83 W3        30.25F
HARBOR SPRINGS CLOUDY    17   9  70 NW6       30.27F
HOUGHTON LAKE  CLOUDY    16  11  80 NW6       30.26F
MANISTEE       CLOUDY    19  12  73 CALM      30.32S
OSCODA         MOCLDY    15   7  68 NW7       30.28S
PELLSTON       LGT SNOW  17  10  74 NW9       30.27F
TRAVERSE CITY  CLOUDY    18  11  74 W6        30.30S
$$
MIZ007>008-015-280600-
EASTERN UPPER MICHIGAN

CITY           SKY/WX    TMP DP  RH WIND       PRES   REMARKS
KINROSS        CLEAR      3   1  92 E5        30.25F
MACKINAC ISLAN PTCLDY    16  10  77 NW10G17   30.24F
NEWBERRY       MOCLDY     9   8  97 W6        30.24S
S. S. MARIE    CLEAR      2  -4  76 CALM      30.23F
$$
MIZ004>006-011>014-085-280600-
CENTRAL UPPER MICHIGAN

CITY           SKY/WX    TMP DP  RH WIND       PRES   REMARKS
MANISTIQUE     PTCLDY     6   2  83 W8        30.30R
ESCANABA       MOCLDY     1  -2  85 NW5       30.31F
MENOMINEE      PTCLDY     0  -4  85 CALM      30.32F
SAWYER-GWINN   MOCLDY     1  -3  83 W7        30.25F
$$
MIZ001>003-009>011-084-280600-
WESTERN UPPER MICHIGAN

CITY           SKY/WX    TMP DP  RH WIND       PRES   REMARKS
IRON MOUNTAIN  PTCLDY    -6 -11  79 NW3       30.28S
HOUGHTON       FLURRIES   6   2  83 SW5       30.24F
COPPER HARBOR    N/A     12   6  77 VRB6      30.28S
IRONWOOD       MOCLDY    -9  -9 100 CALM      30.24S
$$

ABBREVIATIONS USED IN REMARKS
   TC - TEMPERATURE IN CELSIUS
  WCI - WIND CHILL INDEX
   HX - HEAT INDEX
  VSB - VISIBILITY



USA.gov is the U.S. government's official web portal to all federal, state and local government web resources and services.